Temp
51 44 39 46 46 49 46 43 42 48 54 49 48 50 55 58 58 58 60 62 64 66 71 74 75 76 73 70 69 72 73 73 71 69 70 71 70 72 73 74 74 71 71 71
45 39 50 53 51 48 46 41 40 47 53 50 48 49 54 56 57 57 59 59 61 64 68 71 73 73 73 69 69 71 74 77 75 79 79 76 78 79 78 73 70 71 72 71
41 48 56 53 48 47 43 41 41 42 48 49 46 46 50 53 55 59 60 60 61 61 63 67 70 70 70 69 66 69 72 75 77 78 69 66 67 67 68 69 68 70 71 71
45 52 52 48 47 47 39 48 47 46 40 32 46 31 42 50 51 53 56 57 58 59 61 62 65 66 69 71 69 67 71 73 76 77 72 71 78 75 68 67 74 69 68 69
46 46 46 45 47 50 44 49 45 44 38 33 37 30 39 51 48 51 55 54 53 55 56 57 59 62 65 68 69 68 68 70 74 75 78 77 77 74 66 64 65 65 66 68
49 53 51 49 52 51 51 44 41 37 33 24 35 34 33 39 44 49 50 54 55 55 56 57 59 60 60 62 65 64 63 66 71 72 73 76 77 70 64 62 63 63 64 66
45 45 50 53 45 48 43 33 24 23 23 25 37 34 38 47 52 50 51 53 54 55 53 53 56 58 59 60 63 66 63 64 67 70 72 72 75 73 71 69 66 63 64 65
30 30 45 52 46 40 39 35 24 19 23 28 39 28 37 49 52 52 53 53 54 54 52 52 55 56 58 60 62 64 65 67 64 68 71 73 74 73 70 67 64 65 65 66
33 35 49 52 50 47 37 32 38 29 28 21 30 37 45 51 49 51 50 52 51 52 53 54 55 56 57 58 60 63 64 67 69 69 71 66 67 66 65 64 65 66 66 66
40 31 45 49 49 48 42 44 27 26 21 20 28 30 33 43 47 49 49 50 51 53 53 56 56 57 58 56 60 64 62 66 70 69 69 68 66 64 63 65 65 66 65 67
40 34 37 42 39 37 36 32 32 29 26 18 18 28 41 42 46 46 49 51 50 51 53 54 56 57 56 56 59 62 63 60 63 64 63 63 62 63 65 66 66 66 66 67
41 33 28 34 45 47 41 36 33 21 21 29 25 29 49 51 50 48 48 53 52 53 53 54 56 56 57 56 58 61 63 61 63 66 63 63 63 65 65 65 66 66 66 67
40 31 26 31 36 40 36 37 37 35 29 28 25 30 48 48 49 51 49 50 52 52 52 55 57 57 57 59 58 62 63 64 61 62 63 64 65 65 65 65 66 66 66 67
47 33 31 27 32 33 33 39 42 38 29 30 31 35 42 45 45 46 48 48 48 52 55 56 55 57 58 58 59 60 62 65 63 64 65 66 66 66 66 66 67 67 68 67
38 30 32 35 39 39 37 37 39 36 37 31 35 36 42 45 42 44 47 50 51 54 55 54 55 53 56 55 56 60 60 65 65 65 65 66 67 67 67 67 67 68 67 67
35 29 33 33 39 39 36 39 41 41 41 40 39 37 46 43 44 46 46 48 50 53 53 53 53 54 55 56 56 58 59 62 66 66 65 66 66 66 66 66 66 66 65 66
33 30 29 28 37 36 31 38 39 41 44 42 33 42 43 42 42 44 45 47 49 51 51 52 51 52 54 57 58 56 57 61 65 65 65 65 65 64 64 65 65 64 64 63
33 32 34 29 30 23 38 44 44 40 43 45 45 46 43 43 45 46 48 47 49 51 51 50 51 51 53 56 58 58 59 61 66 65 66 66 66 65 65 65 64 62 62 61
39 35 32 28 24 32 38 40 38 35 37 45 42 42 44 46 45 46 50 51 51 50 51 51 53 52 53 55 58 58 60 60 66 66 66 67 68 65 64 63 63 61 59 58
39 39 33 30 26 20 33 41 44 42 31 41 41 41 42 43 36 42 48 50 50 51 52 51 53 54 54 57 58 58 59 58 66 66 67 67 67 66 63 61 61 60 59 58
32 34 30 30 27 30 40 42 44 29 33 43 43 43 41 39 43 46 48 49 51 52 51 53 52 52 54 58 58 57 59 57 64 67 67 67 66 64 63 61 61 60 59 57
28 25 26 31 28 23 43 41 35 41 45 45 42 42 41 43 44 45 47 48 49 50 51 53 52 53 54 60 58 58 58 59 61 65 67 66 64 66 63 61 61 61 59 56
25 34 32 30 28 39 42 42 46 46 43 42 40 42 44 43 44 46 47 49 50 50 51 54 55 54 57 60 58 57 59 61 62 64 64 63 64 63 63 62 60 58 58 57
37 39 32 35 38 41 44 45 46 45 40 42 44 44 45 43 45 46 48 49 49 51 52 54 55 55 57 59 61 61 61 62 64 63 64 63 61 62 64 62 60 59 57 57
39 40 37 38 42 43 45 45 45 41 43 44 46 46 45 45 45 47 48 50 51 52 53 54 56 55 58 59 60 62 61 68 65 64 63 63 61 60 56 53 56 59 58 57
39 37 36 35 43 41 42 44 45 43 44 44 44 44 46 47 46 48 49 50 50 51 53 53 57 58 60 62 63 66 68 69 67 63 61 60 57 57 56 55 52 42 44 47
MSLP
1009.35 1009.85 1010.29 1010.19 1010.40 1010.30 1010.39 1010.36 1010.09 1009.41 1008.84 1008.42 1007.76 1006.73 1006.26 1005.88 1005.43 1005.16 1004.59 1004.17 1003.52 1003.27 1002.49 1001.84 1001.62 1001.72 1001.38 1001.75 1001.84 1001.00 1001.25 1001.26 1001.74 1001.91 1002.33 1002.62 1002.30 1002.49 1002.88 1003.26 1003.77 1004.03 1004.43 1005.19
1010.07 1010.13 1009.81 1009.77 1009.91 1010.18 1010.30 1010.33 1010.43 1009.99 1009.35 1008.89 1008.17 1006.14 1006.12 1005.92 1005.58 1005.30 1004.94 1004.47 1004.08 1003.33 1002.58 1002.20 1001.61 1001.53 1001.40 1001.40 1001.44 1001.29 1000.77 1000.54 1000.84 1001.29 1001.06 1000.96 1001.38 1001.66 1001.98 1002.51 1003.01 1003.37 1003.70 1004.18
1010.12 1009.74 1009.43 1009.58 1009.69 1009.85 1010.16 1010.45 1010.60 1010.64 1009.97 1009.32 1008.68 1006.19 1005.94 1005.80 1005.55 1005.23 1004.90 1004.57 1004.21 1003.83 1003.18 1002.54 1001.95 1001.23 1000.99 1000.82 1000.78 1000.88 1000.51 999.85 999.70 1000.10 1000.83 1001.11 1001.62 1001.93 1002.18 1002.22 1002.31 1002.42 1002.93 1003.47
1009.80 1009.26 1009.28 1009.38 1009.63 1009.93 1010.15 1010.45 1010.77 1010.91 1011.09 1011.09 1010.27 1007.42 1007.00 1005.99 1005.38 1005.27 1004.91 1004.76 1004.43 1003.94 1003.49 1003.36 1002.73 1001.89 1001.16 1000.75 1000.67 1000.37 1000.12 999.64 999.19 998.97 999.84 1000.32 1000.36 1000.86 1001.02 1001.15 1001.16 1001.72 1002.28 1002.82
1009.64 1009.28 1009.35 1009.35 1009.48 1009.78 1010.27 1010.45 1011.10 1011.47 1011.81 1011.89 1011.32 1010.49 1006.13 1006.33 1005.96 1005.00 1004.53 1004.84 1004.86 1004.66 1004.00 1003.48 1003.09 1002.21 1001.34 1000.52 999.99 999.73 999.28 998.99 998.73 998.68 998.94 999.14 999.71 1000.03 1000.38 1001.00 1001.43 1001.84 1002.12 1002.55
1009.42 1009.16 1009.16 1009.20 1009.44 1009.90 1010.46 1011.18 1011.97 1012.42 1012.85 1012.73 1011.75 1011.37 1007.24 1006.70 1006.39 1006.01 1005.51 1004.97 1004.64 1004.42 1003.92 1003.29 1002.79 1002.10 1001.38 1000.61 999.90 999.33 998.87 998.17 997.91 998.15 997.87 998.33 998.82 999.53 1000.24 1001.07 1001.51 1001.65 1002.11 1002.38
1009.82 1009.58 1009.30 1009.40 1009.95 1010.42 1011.24 1012.24 1013.49 1013.94 1014.14 1013.24 1012.08 1011.41 1008.11 1007.15 1006.41 1006.15 1005.72 1005.28 1004.75 1004.27 1003.93 1003.43 1002.76 1001.93 1001.10 1000.23 999.57 998.85 998.41 997.82 997.48 997.58 997.54 997.58 998.10 998.70 999.37 1000.17 1000.74 1001.37 1001.88 1001.88
1010.66 1010.50 1009.89 1009.93 1010.32 1010.92 1011.61 1012.76 1014.29 1014.46 1014.39 1013.52 1012.37 1010.30 1007.93 1006.90 1006.07 1005.73 1005.60 1005.21 1004.66 1004.02 1003.43 1002.97 1002.45 1001.89 1001.14 1000.18 999.17 998.58 997.90 997.18 996.93 996.85 996.92 997.13 997.34 997.90 998.65 999.41 999.94 1000.39 1000.55 1000.87
1011.32 1011.03 1010.31 1010.13 1010.30 1010.94 1011.77 1012.82 1013.28 1014.29 1014.36 1013.85 1011.86 1009.55 1007.39 1005.95 1005.79 1005.45 1005.24 1005.08 1004.74 1004.02 1003.24 1002.56 1001.94 1001.32 1000.45 999.72 998.89 998.21 997.34 996.37 995.90 995.97 996.21 996.68 996.95 997.58 998.30 998.66 999.23 999.62 1000.06 1000.63
1011.59 1011.68 1010.92 1010.53 1010.54 1010.69 1011.31 1012.23 1013.55 1014.66 1014.87 1013.87 1011.30 1009.72 1007.47 1006.06 1005.43 1005.09 1004.72 1004.41 1003.94 1003.47 1002.84 1001.96 1001.21 1000.45 999.85 999.13 998.40 997.44 996.59 995.82 995.14 995.06 995.18 995.80 996.31 996.93 997.58 998.22 998.73 999.17 999.72 1000.49
1011.67 1012.29 1012.01 1011.42 1011.08 1011.11 1011.85 1012.35 1013.46 1014.30 1014.48 1013.75 1011.80 1008.73 1006.47 1005.82 1005.17 1004.93 1004.38 1003.85 1003.54 1003.20 1002.44 1001.75 1000.87 1000.15 999.76 998.55 997.85 997.03 996.04 995.36 994.74 994.48 994.67 995.13 995.76 996.50 997.01 997.62 998.15 998.65 999.31 1000.10
1011.94 1012.57 1012.89 1012.14 1010.99 1011.20 1011.61 1012.31 1013.10 1013.99 1013.87 1013.15 1011.86 1008.05 1006.16 1005.27 1005.09 1004.85 1004.01 1003.21 1002.84 1002.57 1002.04 1001.45 1000.52 999.89 999.25 998.24 997.33 996.61 995.60 994.94 993.97 993.71 994.40 994.58 995.24 996.10 996.71 997.32 997.67 998.32 998.98 999.70
1012.03 1012.92 1013.23 1012.20 1011.65 1011.40 1011.78 1012.32 1012.49 1012.74 1012.95 1011.73 1011.15 1006.87 1005.66 1005.30 1004.84 1004.26 1003.64 1003.20 1002.55 1002.52 1001.84 1000.96 1000.31 999.61 999.10 997.78 996.69 995.89 994.75 994.01 993.43 993.47 993.93 994.51 995.07 995.77 996.28 996.86 997.32 997.94 998.70 999.43
1011.84 1012.71 1013.13 1012.73 1012.02 1011.91 1011.85 1011.50 1011.66 1011.92 1011.42 1010.09 1008.65 1006.84 1006.00 1005.59 1004.93 1004.47 1004.09 1003.33 1002.65 1001.95 1001.32 1000.59 1000.26 999.76 998.81 996.84 996.01 995.27 994.05 993.17 992.94 993.17 993.87 994.14 994.46 994.94 995.68 996.38 997.08 997.79 998.46 999.04
1011.87 1012.66 1012.85 1012.37 1011.85 1011.61 1011.05 1010.40 1010.05 1010.03 1009.35 1009.12 1007.36 1007.04 1005.64 1005.32 1005.19 1004.94 1004.60 1003.59 1002.76 1001.80 1001.53 1001.33 1000.87 999.90 998.58 996.67 995.71 995.00 993.99 993.32 992.68 993.04 993.66 993.56 994.15 994.96 995.53 996.33 997.17 997.79 998.29 999.02
1012.37 1012.58 1012.60 1011.97 1011.63 1010.87 1010.02 1008.81 1008.43 1007.89 1007.44 1007.08 1006.99 1006.19 1005.36 1005.37 1005.25 1004.91 1004.43 1003.64 1002.70 1001.93 1001.54 1001.16 1001.29 999.78 998.35 996.65 995.85 995.40 994.45 993.64 993.30 993.12 993.54 993.86 994.23 994.92 995.80 996.43 996.98 997.73 998.62 999.40
1012.76 1012.85 1012.98 1011.62 1010.94 1010.38 1009.01 1006.76 1006.91 1006.73 1006.50 1006.68 1006.48 1005.16 1005.27 1005.16 1005.15 1004.81 1003.99 1003.40 1002.37 1001.98 1001.62 1000.84 1000.26 999.23 997.94 996.62 995.87 995.45 994.48 993.89 993.51 993.28 993.69 993.95 994.53 995.07 996.01 996.46 997.31 998.15 999.01 999.76
1012.08 1012.69 1012.96 1011.85 1011.04 1009.74 1007.24 1006.61 1006.44 1006.63 1006.32 1005.94 1005.56 1005.14 1005.40 1005.55 1004.95 1004.29 1003.77 1003.19 1002.42 1001.79 1001.26 1000.66 999.78 998.58 997.48 996.36 995.47 994.95 994.34 993.75 993.25 993.06 993.22 993.98 994.52 995.17 995.83 996.80 997.67 998.43 999.41 1000.17
1011.11 1012.21 1012.24 1011.77 1011.24 1008.87 1007.26 1006.59 1006.77 1006.81 1006.00 1005.53 1005.27 1005.48 1005.69 1005.47 1004.67 1003.27 1002.96 1002.72 1002.34 1001.65 1000.89 1000.06 999.16 997.93 997.34 996.48 995.33 994.68 994.14 993.69 992.83 992.49 993.23 993.97 994.56 995.10 995.97 997.09 998.01 999.03 999.88 1000.66
1010.93 1011.61 1012.10 1011.66 1010.82 1009.34 1007.21 1006.73 1006.88 1007.02 1006.24 1005.53 1005.75 1005.61 1005.55 1005.08 1004.16 1002.31 1002.51 1002.08 1001.18 1000.62 1000.00 999.21 998.51 997.97 996.89 995.38 994.73 994.65 994.26 993.37 992.12 992.38 993.07 993.73 994.41 994.94 996.21 997.53 998.59 999.49 1000.01 1001.03
1011.39 1011.53 1011.53 1011.20 1010.56 1008.57 1007.05 1007.10 1007.16 1007.24 1006.11 1005.47 1005.46 1005.14 1005.10 1004.59 1003.96 1002.50 1002.27 1001.18 1000.82 999.86 999.13 998.44 997.56 996.86 995.96 995.18 994.74 994.82 994.22 993.26 991.87 992.85 993.23 993.77 994.68 995.32 996.59 997.93 998.99 999.91 1000.75 1001.61
1011.21 1011.26 1011.11 1010.40 1009.70 1008.69 1007.26 1007.27 1007.69 1006.52 1005.57 1005.59 1005.34 1004.77 1004.24 1003.60 1002.91 1002.26 1001.36 1000.20 999.49 998.53 997.79 997.24 996.61 995.82 994.90 994.14 993.44 993.27 993.83 992.86 993.24 993.64 993.13 994.20 994.90 995.92 997.24 998.26 999.50 1000.29 1000.97 1001.95
1011.23 1011.03 1011.12 1010.47 1008.51 1007.29 1006.94 1006.94 1006.45 1006.22 1005.84 1005.71 1005.27 1004.33 1003.34 1002.93 1002.28 1001.31 1000.54 999.38 998.29 997.69 997.08 996.17 995.47 994.93 993.73 992.98 992.57 992.42 992.71 992.53 993.20 993.75 993.87 994.52 995.55 996.55 997.67 998.69 999.81 1000.62 1001.37 1002.19
1010.84 1010.18 1010.12 1009.62 1007.51 1007.12 1006.71 1006.12 1006.12 1005.84 1005.70 1004.95 1004.39 1003.32 1002.73 1002.17 1001.53 1000.60 999.61 998.80 997.60 996.80 995.88 995.21 994.61 993.92 993.30 992.78 992.07 992.24 992.22 992.70 993.47 994.15 994.31 995.14 996.27 997.25 998.11 999.08 1000.05 1000.89 1001.71 1002.36
1010.37 1009.76 1008.68 1008.09 1007.42 1006.94 1006.39 1006.08 1005.70 1005.19 1004.88 1003.93 1003.31 1002.46 1001.92 1001.24 1000.28 999.80 998.81 998.04 997.03 996.16 995.02 994.52 993.76 993.01 992.35 991.50 991.17 991.26 992.63 993.23 993.51 994.03 994.87 995.85 996.86 997.83 999.16 1000.16 1000.92 1001.29 1001.70 1001.70
1009.16 1008.50 1008.05 1007.07 1006.81 1006.80 1006.04 1005.76 1005.38 1004.74 1003.98 1003.24 1002.35 1001.61 1001.08 1000.58 999.64 998.87 998.00 997.16 996.28 995.36 994.15 994.04 993.13 991.80 991.44 991.49 991.25 991.73 992.44 992.48 993.45 994.49 995.40 996.68 997.57 998.55 999.62 1000.47 1001.65 1002.18 1002.21 1002.20
Wind_Speed
3 4 3 10 8 6 4 2 2 4 5 5 7 15 9 7 6 8 9 8 10 11 9 9 7 7 8 7 8 10 10 11 5 3 4 4 4 5 5 8 12 9 8 11
6 1 5 4 4 4 4 1 1 4 5 7 10 23 10 3 5 5 8 8 8 10 12 12 11 6 6 10 11 12 14 17 11 10 8 4 5 8 9 7 6 8 10 10
3 6 4 3 3 2 1 4 2 4 6 6 7 20 12 3 3 6 7 7 8 8 12 14 12 12 8 7 8 10 14 16 15 16 3 3 3 2 3 3 4 8 9 9
4 4 1 3 2 2 2 1 0 5 6 3 5 16 5 8 11 4 8 8 10 11 11 9 12 12 14 12 8 10 14 14 14 16 10 10 13 11 5 4 5 5 7 8
7 2 2 4 1 2 4 2 3 3 4 3 2 5 4 14 13 16 11 6 5 8 8 10 12 12 14 13 11 9 10 13 15 13 15 14 14 8 3 2 5 4 4 6
8 2 4 4 1 1 3 3 5 4 2 1 7 5 5 2 2 8 5 8 8 8 10 11 11 10 11 10 11 9 9 12 13 13 16 17 18 11 5 4 5 5 3 4
3 2 1 3 3 5 6 6 4 5 3 6 3 5 11 16 16 5 9 9 10 10 9 10 11 13 13 13 14 13 8 12 12 13 14 16 15 13 13 10 7 6 5 4
3 5 2 1 4 5 4 7 6 6 3 13 5 8 9 7 8 8 8 11 10 13 9 9 11 12 13 13 14 13 13 14 10 13 16 16 15 9 8 9 6 5 5 6
2 4 3 3 2 5 2 4 5 4 1 2 6 8 11 19 9 10 8 9 11 13 13 11 11 10 13 10 13 15 14 14 13 14 14 9 8 8 10 9 7 5 5 5
4 3 5 3 1 3 6 4 1 2 3 5 6 6 11 12 13 9 12 10 13 13 12 14 12 12 12 9 12 15 12 14 16 13 12 11 12 9 8 8 8 8 6 7
4 5 4 3 5 6 2 1 3 3 4 5 4 8 7 8 10 12 14 15 11 13 14 13 14 13 12 9 11 13 11 10 10 8 8 8 7 7 9 8 9 9 9 9
4 4 3 10 9 6 5 5 5 5 6 5 3 16 5 15 11 10 15 18 13 13 12 12 14 13 15 11 10 11 10 8 10 10 8 9 8 9 9 9 9 10 10 9
5 1 3 6 4 6 1 4 4 3 1 12 8 15 2 9 17 16 16 16 16 9 11 12 18 12 15 11 7 11 11 10 7 8 8 10 11 12 11 11 11 10 10 10
7 4 7 6 7 3 9 15 14 12 5 8 16 24 18 20 16 12 15 14 10 9 7 15 17 14 13 5 6 9 11 12 5 8 11 12 13 12 11 10 10 11 11 11
5 7 7 10 14 13 17 21 19 18 20 15 17 18 21 16 8 7 8 14 16 12 13 15 20 17 11 6 7 11 8 11 3 5 7 9 9 9 10 11 10 11 11 11
1 4 3 9 14 17 21 21 18 21 19 17 15 18 12 4 5 10 12 14 16 10 13 12 18 19 18 10 7 12 11 8 4 8 8 8 10 10 10 11 12 12 9 9
4 2 2 9 1 7 13 12 10 5 5 3 9 16 5 10 12 14 15 16 16 11 15 17 17 16 18 13 11 10 9 9 5 8 9 10 11 12 11 12 12 11 11 10
7 5 3 5 4 5 5 3 1 3 10 11 13 13 3 6 14 15 16 13 10 16 16 15 15 16 18 19 15 11 7 8 8 10 12 11 13 14 13 13 13 10 9 11
13 5 4 3 4 8 7 4 4 2 9 11 10 4 9 12 16 14 11 4 14 15 15 14 14 17 18 18 11 11 5 10 7 12 13 13 14 15 15 13 12 10 10 9
7 5 2 2 5 6 6 3 3 1 9 4 3 7 11 14 16 15 11 18 16 18 15 17 16 15 14 17 9 6 2 10 8 15 15 14 14 15 14 12 12 6 10 9
2 3 6 6 6 8 3 5 5 3 4 3 8 12 12 15 15 20 19 18 17 18 19 17 15 14 14 16 7 5 4 6 4 11 14 14 13 13 14 11 10 10 11 10
3 3 4 3 3 8 3 0 3 7 13 13 13 16 17 20 18 19 18 17 19 19 18 17 14 12 14 13 6 4 6 5 5 6 15 13 13 11 10 13 10 11 12 11
3 2 2 7 8 6 4 7 13 13 11 13 16 19 20 19 19 19 18 19 19 19 16 15 12 12 13 3 5 4 6 4 7 9 13 12 11 11 12 13 11 9 9 9
4 3 4 4 5 5 9 9 6 7 9 13 17 19 17 20 18 19 18 17 17 16 16 14 13 9 8 7 4 5 1 5 9 11 13 12 12 10 9 9 8 9 7 7
8 4 6 6 11 11 13 5 15 9 11 19 19 19 16 19 18 19 16 17 16 16 16 13 12 9 5 11 13 11 13 12 11 12 11 11 10 11 8 7 4 7 5 8
4 7 5 8 9 14 10 9 10 15 16 21 17 18 18 17 19 18 17 16 15 16 15 12 11 9 1 3 5 12 16 15 14 11 10 9 8 8 8 7 6 15 10 9
Wind_Direction
346 74 221 241 208 229 268 253 234 265 334 349 281 299 315 276 294 290 299 302 308 304 301 312 311 251 238 242 261 226 206 231 202 160 177 211 214 205 213 214 208 186 177 190
14 224 217 234 208 205 227 190 322 275 328 333 310 296 298 260 252 269 289 301 291 302 313 315 314 311 249 242 223 232 227 228 215 226 224 218 212 222 219 201 181 181 190 189
168 245 295 9 47 69 97 125 320 276 313 287 314 290 297 230 279 282 280 287 301 276 294 305 308 306 301 279 250 239 233 229 215 212 148 98 84 139 155 187 182 201 201 193
232 265 55 17 173 131 337 120 357 328 13 310 58 289 249 271 289 278 270 265 278 309 319 314 317 316 312 296 249 231 236 232 225 202 192 201 214 213 212 196 215 197 189 203
259 267 343 333 217 157 238 350 327 299 294 11 255 286 112 325 289 278 297 352 310 300 301 301 299 301 298 303 296 268 237 226 230 201 217 206 213 213 151 139 175 199 200 201
246 194 166 206 211 308 59 34 17 30 47 323 229 207 326 229 316 317 290 292 296 293 286 293 289 285 289 296 295 278 255 242 230 220 207 210 213 197 152 157 191 203 195 198
316 351 70 102 28 8 65 50 347 341 2 240 274 270 263 299 299 296 282 289 284 279 271 278 297 305 308 306 306 296 265 249 224 215 209 206 209 201 196 200 198 173 174 173
140 323 117 118 196 210 227 155 161 252 238 281 277 253 254 236 232 255 252 264 275 286 278 271 281 292 294 289 303 305 283 260 207 204 212 212 201 198 197 199 186 190 182 183
152 260 281 211 168 128 201 176 208 231 100 356 227 268 291 264 236 264 261 250 266 279 291 288 284 274 278 283 293 296 290 259 242 205 207 201 194 177 187 186 174 171 157 159
168 290 255 266 120 265 160 191 16 8 282 251 262 258 252 276 278 281 287 288 290 292 294 298 293 280 284 276 287 293 285 254 240 221 198 199 192 181 166 153 165 166 148 160
171 155 278 0 226 200 311 245 91 128 167 219 288 260 221 254 272 276 283 280 275 286 294 299 304 297 282 271 286 285 289 267 234 211 198 177 171 167 157 166 169 166 154 164
186 143 229 233 268 238 184 226 156 130 261 225 221 267 228 258 285 296 280 283 284 278 284 298 301 296 286 275 280 288 296 260 233 214 203 181 155 157 161 167 163 156 163 160
182 180 311 321 5 4 187 200 205 208 264 241 251 268 289 309 305 296 291 287 275 303 298 317 316 296 285 271 277 296 310 294 219 182 172 169 162 166 165 163 158 158 151 152
168 165 189 230 239 191 285 270 264 249 235 261 229 272 273 285 290 309 314 289 286 288 310 341 311 309 275 303 304 315 336 312 188 164 168 169 160 161 159 153 149 150 152 144
144 202 210 240 262 275 267 270 270 257 257 249 273 259 280 283 297 319 330 342 338 350 354 347 319 320 291 336 326 319 326 322 168 143 162 146 141 141 136 138 143 145 144 150
190 253 217 265 268 260 268 266 258 266 262 254 269 275 269 306 290 329 332 322 310 312 335 336 304 311 312 324 317 318 311 331 255 141 141 141 140 133 135 140 138 133 126 130
173 181 57 279 327 299 279 255 209 247 211 250 278 275 307 327 329 318 308 300 294 330 323 316 307 307 311 307 315 313 308 311 207 153 146 142 141 138 142 132 131 127 132 117
206 162 192 285 355 254 255 294 325 279 279 273 279 281 331 317 294 294 292 293 309 319 313 304 298 306 308 319 310 309 292 307 193 150 142 146 144 136 132 130 125 125 126 129
210 157 233 233 209 294 286 200 196 157 280 264 256 311 315 310 299 283 258 296 300 296 294 287 291 300 298 293 284 286 254 324 218 150 149 149 146 129 125 125 123 123 121 114
123 154 209 219 247 256 247 165 130 99 269 103 301 283 299 316 302 295 318 306 296 292 296 296 288 281 279 290 278 278 303 320 175 151 154 152 144 132 125 125 126 117 111 108
171 184 225 244 260 276 283 120 66 244 286 247 296 297 297 285 274 292 297 286 289 291 292 284 282 277 276 276 259 264 167 353 62 157 147 138 133 130 120 117 118 115 116 110
226 173 225 240 244 279 165 80 255 293 299 311 303 300 292 285 291 289 290 294 292 290 291 290 284 279 274 275 211 208 184 136 321 211 133 134 123 123 122 120 123 126 119 114
305 200 263 193 226 233 207 256 286 278 298 311 301 297 292 296 292 293 293 286 290 290 291 284 281 272 282 278 223 247 144 32 326 189 133 122 117 120 128 126 123 118 123 129
275 266 243 304 280 278 297 295 278 280 288 300 291 294 295 288 290 287 286 287 290 289 285 288 288 275 293 334 287 125 262 331 181 143 121 119 116 121 123 121 132 131 135 135
246 306 249 259 279 311 292 302 312 279 305 317 294 288 291 293 289 288 287 285 280 282 285 290 295 277 291 301 256 221 218 193 139 120 119 117 122 114 99 69 97 143 144 152
203 217 256 284 294 290 284 295 310 295 309 306 304 302 295 292 290 290 284 283 279 278 280 280 286 249 290 346 109 151 166 139 131 125 117 128 122 120 120 121 94 44 55 106